Simultaneous Nadir Overpasses (SNOs) Predictions

Prediction of SNOs between GOES-15 and METOP-A Satellite Orbit:

Table of predicted SNOs for the next 14.0 days since TLE Epoch: 8/14/2021
Index Date Time (GOES-15) GOES-15 Lat,Lon METOP-A Lat,Lon Distance(km) Time Diff (sec)
1 08/15/2021 16:31:48 -0.13,-128.17 -0.18,-128.03 15.70 80
2 08/18/2021 04:30:07 0.13,-128.24 0.27,-127.70 62.11 80
3 08/19/2021 16:51:37 -0.10,-128.20 0.82,-132.28 465.06 80
4 08/20/2021 16:28:17 -0.12,-128.21 -0.32,-127.31 102.70 80
5 08/22/2021 04:49:57 0.10,-128.28 -0.73,-131.94 417.97 80
6 08/23/2021 04:26:37 0.12,-128.28 0.41,-126.97 149.03 80
7 08/24/2021 16:48:07 -0.09,-128.24 0.62,-131.57 378.68 80
8 08/25/2021 16:24:47 -0.12,-128.25 -0.46,-126.59 189.06 80
9 08/27/2021 04:46:27 0.09,-128.32 -0.53,-131.23 331.06 80
